When you browse on this site, cookies collect data to enhance your experience and personalize the content and advertising you see.
Visit our Privacy Policy to learn more. By continuing to use the site, you agree to this use of cookies and data.

Previsão horária em Kisangani

Hoje, 9 Julho, Quinta-feira

Tempo Temperatura Precipitação Vento Pressão Humidade
00:00 +25°C° 0 mm 1 m/s 717 mmHg 82%
01:00 +25°C° 0 mm 1 m/s 717 mmHg 84%
02:00 +24°C° 0 mm 1 m/s 717 mmHg 86%
03:00 +24°C° 0 mm 1 m/s 717 mmHg 87%
04:00 +24°C° 0 mm 1 m/s 716 mmHg 88%
05:00 +23°C° 0 mm 1 m/s 716 mmHg 89%
06:00 +24°C° 0 mm 1 m/s 717 mmHg 86%
07:00 +25°C° 0 mm 1 m/s 718 mmHg 82%
08:00 +26°C° 0 mm 1 m/s 718 mmHg 79%
09:00 +29°C° 0 mm 1 m/s 718 mmHg 68%
10:00 +32°C° 0 mm 1 m/s 719 mmHg 58%
11:00 +34°C° 0 mm 1 m/s 719 mmHg 47%
12:00 +35°C° 0 mm 1 m/s 718 mmHg 43%
13:00 +36°C° 0 mm 1 m/s 717 mmHg 40%
14:00 +37°C° 0 mm 1 m/s 716 mmHg 37%
15:00 +34°C° 0 mm 0 m/s 716 mmHg 41%
16:00 +32°C° 0 mm 0 m/s 715 mmHg 45%
17:00 +31°C° 0 mm 0 m/s 715 mmHg 49%
18:00 +29°C° 0 mm 0 m/s 715 mmHg 55%
19:00 +28°C° 0 mm 0 m/s 716 mmHg 60%
20:00 +26°C° 0 mm 0 m/s 716 mmHg 66%
21:00 +25°C° 0.5 mm 0 m/s 716 mmHg 72%
22:00 +24°C° 0.5 mm 0 m/s 717 mmHg 79%
23:00 +25°C° 0.5 mm 1 m/s 717 mmHg 85%

Amanhã, 10 Julho, Sexta-feira

Tempo Temperatura Precipitação Vento Pressão Humidade
00:00 +25°C° 0.1 mm 1 m/s 717 mmHg 88%
01:00 +22°C° 0.1 mm 0 m/s 717 mmHg 91%
02:00 +22°C° 0.1 mm 0 m/s 716 mmHg 93%
03:00 +24°C° 0 mm 1 m/s 716 mmHg 94%
04:00 +24°C° 0 mm 1 m/s 716 mmHg 94%
05:00 +23°C° 0 mm 1 m/s 716 mmHg 95%
06:00 +24°C° 0 mm 1 m/s 717 mmHg 93%
07:00 +25°C° 0 mm 1 m/s 718 mmHg 91%
08:00 +25°C° 0 mm 1 m/s 718 mmHg 89%
09:00 +27°C° 0 mm 1 m/s 718 mmHg 79%
10:00 +29°C° 0 mm 1 m/s 719 mmHg 70%
11:00 +31°C° 0 mm 1 m/s 719 mmHg 60%
12:00 +33°C° 0.1 mm 1 m/s 718 mmHg 55%
13:00 +34°C° 0.1 mm 1 m/s 718 mmHg 50%
14:00 +33°C° 0.1 mm 0 m/s 717 mmHg 46%
15:00 +32°C° 0.3 mm 0 m/s 717 mmHg 50%
16:00 +31°C° 0.3 mm 0 m/s 716 mmHg 55%
17:00 +30°C° 0.3 mm 0 m/s 715 mmHg 60%
18:00 +28°C° 0.2 mm 0 m/s 716 mmHg 66%
19:00 +26°C° 0.2 mm 0 m/s 716 mmHg 71%
20:00 +25°C° 0.2 mm 0 m/s 716 mmHg 77%
21:00 +24°C° 0.8 mm 0 m/s 717 mmHg 82%
22:00 +23°C° 0.8 mm 0 m/s 717 mmHg 87%
23:00 +22°C° 0.8 mm 0 m/s 717 mmHg 92%

Depois de amanhã, 11 Julho, Sábado

Tempo Temperatura Precipitação Vento Pressão Humidade
00:00 +22°C° 0 mm 0 m/s 717 mmHg 93%
01:00 +22°C° 0 mm 0 m/s 717 mmHg 94%
02:00 +22°C° 0 mm 0 m/s 717 mmHg 94%
03:00 +22°C° 0 mm 0 m/s 717 mmHg 94%
04:00 +24°C° 0 mm 1 m/s 717 mmHg 94%
05:00 +24°C° 0 mm 1 m/s 717 mmHg 94%
06:00 +24°C° 0 mm 1 m/s 717 mmHg 93%
07:00 +24°C° 0 mm 1 m/s 718 mmHg 92%
08:00 +25°C° 0 mm 1 m/s 719 mmHg 90%
09:00 +27°C° 0.2 mm 1 m/s 719 mmHg 81%
10:00 +29°C° 0.2 mm 1 m/s 719 mmHg 72%
11:00 +31°C° 0.2 mm 1 m/s 719 mmHg 62%
12:00 +33°C° 0.4 mm 1 m/s 718 mmHg 56%
13:00 +33°C° 0.4 mm 0 m/s 718 mmHg 50%
14:00 +34°C° 0.4 mm 0 m/s 717 mmHg 43%
15:00 +33°C° 0 mm 0 m/s 717 mmHg 48%
16:00 +32°C° 0 mm 0 m/s 716 mmHg 52%
17:00 +30°C° 0 mm 0 m/s 716 mmHg 56%
18:00 +28°C° 1.4 mm 0 m/s 716 mmHg 67%
19:00 +28°C° 1.4 mm 1 m/s 716 mmHg 78%
20:00 +25°C° 1.4 mm 1 m/s 717 mmHg 89%
21:00 +25°C° 1.1 mm 1 m/s 717 mmHg 90%
22:00 +25°C° 1.1 mm 1 m/s 718 mmHg 91%
23:00 +25°C° 1.1 mm 1 m/s 718 mmHg 92%

12 Julho, Domingo

Tempo Temperatura Precipitação Vento Pressão Humidade
00:00 +25°C° 0.3 mm 1 m/s 718 mmHg 93%
01:00 +24°C° 0.3 mm 1 m/s 718 mmHg 95%
02:00 +24°C° 0.3 mm 1 m/s 718 mmHg 96%
03:00 +24°C° 0 mm 1 m/s 717 mmHg 96%
04:00 +21°C° 0 mm 0 m/s 717 mmHg 97%
05:00 +21°C° 0 mm 0 m/s 717 mmHg 97%
06:00 +22°C° 0 mm 0 m/s 718 mmHg 94%
07:00 +23°C° 0 mm 0 m/s 719 mmHg 91%
08:00 +23°C° 0 mm 0 m/s 719 mmHg 88%
09:00 +25°C° 0.1 mm 0 m/s 719 mmHg 78%
10:00 +29°C° 0.1 mm 1 m/s 720 mmHg 67%
11:00 +32°C° 0.1 mm 1 m/s 720 mmHg 57%
12:00 +32°C° 0.4 mm 1 m/s 719 mmHg 58%
13:00 +32°C° 0.4 mm 1 m/s 718 mmHg 59%
14:00 +32°C° 0.4 mm 1 m/s 717 mmHg 59%
15:00 +31°C° 0.9 mm 1 m/s 717 mmHg 66%
16:00 +30°C° 0.9 mm 1 m/s 716 mmHg 73%
17:00 +29°C° 0.9 mm 1 m/s 716 mmHg 80%
18:00 +28°C° 0.3 mm 1 m/s 716 mmHg 84%
19:00 +26°C° 0.3 mm 1 m/s 717 mmHg 87%
20:00 +25°C° 0.3 mm 1 m/s 717 mmHg 91%
21:00 +25°C° 0 mm 1 m/s 718 mmHg 92%
22:00 +25°C° 0 mm 1 m/s 718 mmHg 93%
23:00 +24°C° 0 mm 1 m/s 718 mmHg 93%

13 Julho, Segunda-feira

Tempo Temperatura Precipitação Vento Pressão Humidade
00:00 +24°C° 0.3 mm 1 m/s 718 mmHg 94%
01:00 +24°C° 0.3 mm 1 m/s 718 mmHg 95%
02:00 +24°C° 0.3 mm 1 m/s 717 mmHg 96%
03:00 +24°C° 0.5 mm 1 m/s 717 mmHg 95%
04:00 +24°C° 0.5 mm 1 m/s 717 mmHg 95%
05:00 +24°C° 0.5 mm 1 m/s 717 mmHg 94%
06:00 +24°C° 0.1 mm 1 m/s 718 mmHg 94%
07:00 +24°C° 0.1 mm 1 m/s 718 mmHg 94%
08:00 +24°C° 0.1 mm 1 m/s 719 mmHg 94%
09:00 +25°C° 0.4 mm 1 m/s 719 mmHg 89%
10:00 +26°C° 0.4 mm 1 m/s 719 mmHg 84%
11:00 +28°C° 0.4 mm 1 m/s 719 mmHg 78%
12:00 +27°C° 1.4 mm 1 m/s 718 mmHg 79%
13:00 +27°C° 1.4 mm 1 m/s 717 mmHg 80%
14:00 +25°C° 1.4 mm 0 m/s 717 mmHg 82%
15:00 +25°C° 0.1 mm 0 m/s 716 mmHg 84%
16:00 +24°C° 0.1 mm 0 m/s 716 mmHg 86%
17:00 +24°C° 0.1 mm 0 m/s 715 mmHg 89%
18:00 +23°C° 0 mm 0 m/s 716 mmHg 90%
19:00 +23°C° 0 mm 0 m/s 717 mmHg 91%
20:00 +23°C° 0 mm 0 m/s 717 mmHg 92%
21:00 +22°C° 0.3 mm 0 m/s 717 mmHg 93%
22:00 +22°C° 0.3 mm 0 m/s 718 mmHg 93%
23:00 +22°C° 0.3 mm 0 m/s 718 mmHg 93%

14 Julho, Terça-feira

Tempo Temperatura Precipitação Vento Pressão Humidade
00:00 +21°C° 1 mm 0 m/s 717 mmHg 95%
01:00 +21°C° 1 mm 0 m/s 717 mmHg 96%
02:00 +21°C° 1 mm 0 m/s 717 mmHg 97%
03:00 +21°C° 1.1 mm 0 m/s 717 mmHg 97%
04:00 +21°C° 1.1 mm 0 m/s 717 mmHg 97%
05:00 +21°C° 1.1 mm 0 m/s 717 mmHg 97%
06:00 +21°C° 0.2 mm 0 m/s 718 mmHg 97%
07:00 +21°C° 0.2 mm 0 m/s 718 mmHg 96%
08:00 +21°C° 0.2 mm 0 m/s 719 mmHg 95%
09:00 +24°C° 0.2 mm 1 m/s 719 mmHg 93%
10:00 +24°C° 0.2 mm 1 m/s 719 mmHg 91%
11:00 +25°C° 0.2 mm 1 m/s 719 mmHg 88%
12:00 +26°C° 0.2 mm 1 m/s 719 mmHg 84%
13:00 +27°C° 0.2 mm 1 m/s 718 mmHg 79%
14:00 +28°C° 0.2 mm 1 m/s 718 mmHg 75%
15:00 +27°C° 0.4 mm 1 m/s 718 mmHg 78%
16:00 +27°C° 0.4 mm 1 m/s 717 mmHg 80%
17:00 +27°C° 0.4 mm 1 m/s 717 mmHg 83%
18:00 +25°C° 0 mm 1 m/s 717 mmHg 87%
19:00 +22°C° 0 mm 0 m/s 717 mmHg 91%
20:00 +21°C° 0 mm 0 m/s 718 mmHg 95%
21:00 +21°C° 0 mm 0 m/s 718 mmHg 95%
22:00 +21°C° 0 mm 0 m/s 718 mmHg 95%
23:00 +20°C° 0 mm 0 m/s 718 mmHg 95%
Mostrar mais